Home   Weather   Funchal   Past weeks

Flag for Portugal Past Weather in Funchal, Madeira, Portugal — Yesterday and Last 2 Weeks

Now
59 °F

Passing clouds.


Feels Like: 57 °F
Forecast: 57 / 63 °F
Wind: 12 mph from North

Location: Aeroporto Da Madeira

Current Time: Feb 23, 2017 at 7:27:49 am

Latest Report: Feb 23, 2017 at 6:30 am


Visibility: N/A

Pressure: 30.09 "Hg

Humidity: 63%

Dew Point: 46 °F

Location of FunchalLocation

Past Weather in Funchal — Graph

°F

Funchal Temperature Yesterday

Maximum temperature yesterday: 66 °F (at 1:30 pm)
Minimum temperature yesterday: 59 °F (at 3:30 am)
Average temperature yesterday: 62 °F

High & Low Weather Summary for the Past Weeks

 TemperatureHumidityPressure
High73 °F (Feb 17, 3:00 pm)94% (Feb 14, 7:30 am)30.39 "Hg (Feb 14, 7:30 am)
Low52 °F (Feb 12, 4:00 am)30% (Feb 17, 5:00 am)29.45 "Hg (Feb 12, 5:00 am)
Average61 °F69%30.06 "Hg
* Reported Feb 8 6:00 am — Feb 23 6:00 am, Funchal, Weather by CustomWeather, © 2017

Note: Actual official high and low records may vary slightly from our data, if they occured in-between our weather recording intervals... More about our weather records

Advertising

Funchal Weather History for the Previous 24 Hours

Scroll right to see more
 ConditionsComfort  
Time TempWeatherWind HumidityBarometerVisibility
6:00 am
Thu, Feb 23
59 °FPassing clouds.14 mph68%30.09 "HgN/A
5:30 am59 °FPassing clouds.10 mph63%30.09 "HgN/A
5:00 am57 °FPassing clouds.3 mph72%30.09 "HgN/A
4:30 am57 °FPassing clouds.3 mph72%30.09 "HgN/A
4:00 am57 °FPassing clouds.5 mph72%30.09 "HgN/A
3:30 am59 °FPassing clouds.1 mph68%30.12 "HgN/A
3:00 am59 °FPassing clouds.2 mph63%30.12 "HgN/A
2:30 am59 °FPassing clouds.5 mph68%30.12 "HgN/A
2:00 am59 °FPassing clouds.6 mph68%30.12 "HgN/A
1:30 am59 °FPassing clouds.6 mph68%30.12 "HgN/A
1:00 am61 °FPassing clouds.9 mph68%30.12 "HgN/A
12:30 am61 °FPassing clouds.7 mph63%30.12 "HgN/A
12:00 am59 °FPassing clouds.9 mph72%30.12 "HgN/A
11:30 pm
Wed, Feb 22
61 °FPassing clouds.6 mph68%30.12 "HgN/A
11:00 pm61 °FPassing clouds.6 mph68%30.12 "HgN/A
10:30 pm61 °FPassing clouds.6 mph68%30.12 "HgN/A
10:00 pm61 °FPassing clouds.7 mph68%30.12 "HgN/A
9:30 pm61 °FPassing clouds.9 mph72%30.12 "HgN/A
9:00 pm61 °FPassing clouds.12 mph72%30.12 "HgN/A
8:30 pm61 °FPassing clouds.8 mph72%30.12 "HgN/A
8:00 pm61 °FPassing clouds.8 mph72%30.09 "HgN/A
7:30 pm61 °FPartly sunny.9 mph72%30.09 "HgN/A
7:00 pm61 °FScattered clouds.9 mph72%30.09 "HgN/A
6:30 pm63 °FScattered clouds.17 mph68%30.07 "HgN/A
6:00 pm63 °FScattered clouds.14 mph73%30.07 "HgN/A
5:30 pm63 °FScattered clouds.13 mph73%30.07 "HgN/A
5:00 pm64 °FPartly sunny.17 mph64%30.07 "HgN/A
4:30 pm64 °FPartly sunny.16 mph64%30.07 "HgN/A
4:00 pm64 °FPartly sunny.15 mph68%30.07 "HgN/A
3:30 pm64 °FPartly sunny.13 mph68%30.07 "HgN/A
3:00 pm64 °FPartly sunny.9 mph68%30.07 "HgN/A
2:30 pm64 °FScattered clouds.7 mph68%30.07 "HgN/A
2:00 pm64 °FScattered clouds.8 mph68%30.07 "HgN/A
1:30 pm66 °FScattered clouds.10 mph64%30.09 "HgN/A
1:00 pm64 °FScattered clouds.13 mph68%30.09 "HgN/A
12:30 pm64 °FScattered clouds.14 mph68%30.09 "HgN/A
12:00 pm64 °FScattered clouds.9 mph64%30.09 "HgN/A
11:30 am64 °FPassing clouds.10 mph64%30.09 "HgN/A
11:00 am64 °FPassing clouds.13 mph64%30.09 "HgN/A
10:30 am63 °FPassing clouds.16 mph64%30.09 "HgN/A
10:00 am63 °FPassing clouds.15 mph64%30.09 "HgN/A
9:30 am61 °FPassing clouds.15 mph68%30.09 "HgN/A
9:00 am61 °FPassing clouds.15 mph68%30.09 "HgN/A
8:30 am59 °FPassing clouds.15 mph68%30.07 "HgN/A
8:00 am61 °FPassing clouds.15 mph63%30.04 "HgN/A
7:30 am61 °FPassing clouds.15 mph68%30.04 "HgN/A
7:00 am61 °FPassing clouds.16 mph68%30.04 "HgN/A
Weather by CustomWeather, © 2017

See weather overviewHow to use our weather pages